FALCON 9 R/B, 52934

Orbit data source: Space-Track

FALCON 9 R/B, 52934 is space debris in HEO originally from a launch on Wed, 29 Jun 2022 UTC launched from the Air Force Eastern Test Range (AFETR). Debris objects in space refer to the collection of defunct objects orbiting the Earth. Examples of debris include non-operational satellites, rocket bodies, and fragments generated from explosions, collisions, or faulty payload assembly.

Loading next visibility...
Identifier
52934, 2022-071B
Orbit
HEO
Country
Flag of USUS
Related business
Manufacturer
SpaceX
Mission
Spacecraft
Bus & Motor
F9ST2, Unknown motor
Mass
~4,000 kg wet, ~4,000 kg dry
Launch date (UTC)
2022-06-29 (4 years ago)
Launch vehicle
Unknown
Launch site
Air Force Eastern Test Range (AFETR)
Object type
Payload
Rocket body
Debris
Shape & HBR
Cyl, 7.8 m
Radar Cross Section
39.980 m², Large (>1 m²)

Expand to show TLE details & history
Last TLE update: 11 hours ago

TLE from 11 hours ago
0 FALCON 9 R/B
1 52934U 22071B   26062.80770987  .00003027  00000-0  34708-2 0  9993
2 52934  16.2131 249.2803 7197795 105.3478 338.2560  2.34244865 31100
Epoch: 2026-03-03T19:23Z
TLE epoch observation values (Epoch: 2026-03-03T19:23:06.132Z)
Latitude
-0.00003°
Longitude
156.82048°
Altitude
7,844.416 km
Speed
6.277 km/s
True Right ascension
16h 36m 42s
True Declination
0° 00' 00"
Sunlit
Object was in daylight at epoch
Visualization orbit readout
Latitude
Unknown
Longitude
Unknown
Altitude
Unknown
Speed
Unknown
Apparent Right ascension
Unknown
Apparent Declination
Unknown
Sunlit
N/A
Visualization observer readout
Local Sidereal Time
10:05:34
Azimuth
Unknown
Elevation
Unknown
Doppler factor
Unknown
Orbital elements
Apogee altitude
34,817.338 km
Perigee altitude
334.245 km
Semi-major axis
23,953.929 km
Eccentricity
0.71978
Inclination
16.2131°
RAAN
249.2803°
Arg. of periapsis
105.3478°
True anomaly
254.53839°
Mean anomaly
338.256°
Eccentric anomaly
304.11093°
Mean motion
0.58543 °/min
Orbital period
614.93 mins
BSTAR
0.0034708
Loading maneuver chart data...
Computing Atmospheric mass density...
Loading historical data...
Loading historical data...
Loading historical data...
Loading historical data...
Loading historical data...
Loading historical data...
Loading historical data...
Other satellites on launch #71 in the year 2022 (2022-06-29 UTC)

Documentation

Showing up to 5 results
|